[Iaude] MPEC F47: 2024 FJ1 [a=1.25,e=0.14,i=25.1,H=25.4]
    mpec at cfa.harvard.edu 
    mpec at cfa.harvard.edu
       
    Wed Mar 20 03:58:32 EDT 2024
    
    
  
M.P.E.C. 2024-F47                                Issued 2024 March 20, 07:56 UT
     The Minor Planet Electronic Circulars contain information on unusual
         minor planets, routine data on comets and natural satellites,
         and occasional editorial announcements.  They are published
    on behalf of Division F of the International Astronomical Union by the
          Minor Planet Center, Smithsonian Astrophysical Observatory,
                          Cambridge, MA 02138, U.S.A.
			  
             Prepared using the Tamkin Foundation Computer Network
                              MPC at CFA.HARVARD.EDU
            URL https://www.minorplanetcenter.net/    ISSN 1523-6714
                                    2024 FJ1                                    
Observations:
     K24F01J* C2024 03 18.36486610 41 06.778+07 51 55.26         20.96GVEF047V00
     K24F01J  C2024 03 18.37048210 41 08.236+07 53 40.24               VEF047V00
     K24F01J  C2024 03 18.37611010 41 09.712+07 55 26.00               VEF047V00
     K24F01J KC2024 03 19.35339410 45 58.352+13 00 21.13         21.00GVEF047I52
     K24F01J KC2024 03 19.36010710 46 00.120+13 02 24.83         20.62GVEF047I52
     K24F01J KC2024 03 19.36640410 46 01.834+13 04 21.68         21.10GVEF047I52
     K24F01J KC2024 03 20.29353610 50 45.586+17 46 43.54         20.80GVEF047I52
     K24F01J KC2024 03 20.30241110 50 47.958+17 49 22.40         21.26GVEF047I52
     K24F01J KC2024 03 20.30645110 50 49.063+17 50 34.98         20.74GVEF047I52
     K24F01J KC2024 03 20.31048710 50 50.150+17 51 47.56         20.55GVEF047I52
Observer details:
I52 Steward Observatory, Mt. Lemmon Station.  Observer R. A. Kowalski.
    Measurers T. Beuden, V. F. Carvajal, D. Fay, J. B. Fazekas, D. C. Fuls, A.
    R. Gibbs, A. D. Grauer, H. Groeller, J. K. Hogan, R. A. Kowalski, S. M.
    Larson, G. J. Leonard, D. Rankin, R. L. Seaman, F. C. Shelly, K. W.
    Wierzchos.  1.0-m prime focus + CCD.
V00 Kitt Peak-Bok.  Observers V. F. Carvajal, H. Groeller.  Measurers M. J.
    Brucker, C. E. Woodward, T. Beuden, V. F. Carvajal, D. Fay, J. B. Fazekas,
    D. C. Fuls, A. R. Gibbs, H. Groeller, J. K. Hogan, R. A. Kowalski, S. M.
    Larson, C. Lejoly, G. J. Leonard, R. A. Mastaler, R. S. McMillan, D.
    Rankin, R. L. Seaman, F. C. Shelly, K. W. Wierzchos.  2.25-m reflector +
    4x4K mosaic CCD.
Orbital elements:
2024 FJ1                                                 Earth MOID = 0.0773 AU
Epoch 2024 Mar. 31.0 TT = JDT 2460400.5                 MPC                     
M   3.25941              (2000.0)            P               Q                  
n   0.70868095     Peri.    7.54891     -0.99668536     +0.07728429             
a   1.2459546      Node   176.56193     -0.07657890     -0.99667988             
e   0.1401755      Incl.   25.06420     +0.02745826     +0.02561951             
P   1.39           H   25.40          G   0.15           U   9                  
Residuals in seconds of arc
240318 V00  0.1-  0.4+    240319 I52  0.3-  0.3-    240320 I52  0.1+  0.0
240318 V00  0.0   0.2-    240319 I52  0.2+  0.3+    240320 I52  0.1+  0.3+
240318 V00  0.2+  0.2-    240320 I52  0.0   0.1-
240319 I52  0.0   0.0     240320 I52  0.2-  0.2-
Ephemeris:
2024 FJ1                 a,e,i = 1.25, 0.14, 25                  q = 1.0713
Date    TT    R. A. (2000) Decl.     Delta      r    Elong.  Phase     V
2024 02 19    09 23 20.9 -56 01 41   0.2296  1.0943   111.7    57.0    24.5
...
2024 03 05    09 51 01.2 -41 41 12   0.1304  1.0794   129.5    45.2    22.9
...
2024 03 13    10 17 33.0 -18 18 15   0.09044 1.0745   151.8    25.9    21.5
...
2024 03 19    10 44 16.3 +11 11 08   0.08149 1.0723   159.6    18.9    21.1
2024 03 20    10 49 16.6 +16 18 36   0.08252 1.0720   156.6    21.7    21.2
2024 03 21    10 54 25.6 +21 14 49   0.08426 1.0718   152.9    25.0    21.3
...
2024 03 27    11 27 45.9 +44 19 57   0.1066  1.0713   131.5    44.3    22.4
...
2024 04 04    12 14 56.4 +59 25 32   0.1531  1.0726   114.5    58.1    23.6
...
2024 04 19    13 30 30.9 +67 39 39   0.2511  1.0812   101.1    65.7    24.9
A. U. Tomatic                (C) Copyright 2024 MPC           M.P.E.C. 2024-F47
    
    
More information about the Iaude
mailing list